Location: Asheville, NC
(35.6000°N, 82.5500°W)
Time: 23:04:51

RS-15 - Pass Details

Date: 16 March 2018
Orbit: 1888 x 2157 km, 64.8° (Epoch: 20 March)

Event Time Altitude Azimuth Distance (km) Brightness Sun altitude
Exits shadow 00:51:43 36° 22° (NNE) 2,999 9.0 -54.4°
Drops below altitude 10° 00:57:42 10° 28° (NNE) 4,588 10.2 -54.8°
Sets 01:01:05 0° 30° (NNE) 5,563 10.7 -55.0°
